Weather in Gulkevichi

Russia / Krasnodar Krai     45°21′37″N   40°41′42″E
temp.,
°C
wind,
m/s
gust,
m/s
humid.,
%
clouds,
%
prec.,
mm/h
press.,
hPa
HPBL,
m
15 april, thu
thu1500:00+8s229123 0.0 101814
03:00+7se22905 0.0 101816
06:00+7se23905 0.0 101831
09:00+13sse23695 0.0 1018399
12:00+18wsw1349100 0.0 10171479
15:00+19wnw234892 0.0 10161851
18:00+15w3370100 0.4 101743
21:00+11nne2388100 0.9 101844
16 april, fri
fri1600:00+10s228524 0.1 101818
03:00+9ssw1188100 0.1 101810
06:00+9ne1190100 0.2 101811
09:00+13ne1175100 0.2 1019448
12:00+15nnw3270100 0.0 10181007
15:00+11nw579061 1.2 1019431
18:00+11nnw238469 0.1 1019350
21:00+9se1193100 0.1 102121
17 april, sat
sat1700:00+9wnw2291100 0.0 102034
03:00+9w3698100 3.9 1020346
06:00+8wnw379276 0.7 1022443
09:00+10w3568100 0.7 1023607
12:00+14w3457100 0.0 10231184
15:00+15w3454100 0.0 10221472
18:00+13wsw137098 0.0 1022126
21:00+9s118621 0.0 102212
18 april, sun
sun1800:00+8ne2289100 0.0 102211
03:00+8ne2481100 0.0 102199
06:00+8ne3576100 0.0 1021156
09:00+9ne2482100 0.1 1020143
12:00+10ne3490100 0.5 1019138
15:00+11ne2486100 0.5 1020197
18:00+11ese2390100 0.3 102094
21:00+11e2594100 1.2 1021115
19 april, mon
mon1900:00+10e3692100 0.2 1020154
03:00+10e3793100 0.2 1021143
06:00+10e4893100 0.0 1020203
09:00+15ese5880100 0.0 1020481
12:00+19e6766100 0.0 1019975
15:00+20e896499 0.0 10171009
18:00+17e81373100 0.0 1017774
21:00+15e81771100 0.0 1015672